Simultaneous Nadir Overpasses (SNOs) Predictions

Prediction of SNOs between AQUA and GOES-15 Satellite Orbit:

Table of predicted SNOs for the next 14.0 days since TLE Epoch: 8/28/2020
Index Date Time (AQUA) AQUA Lat,Lon GOES-15 Lat,Lon Distance(km) Time Diff (sec)
1 08/28/2020 21:52:06 0.78,-124.21 0.06,-127.61 387.01 80
2 08/29/2020 10:13:22 0.26,-129.38 -0.07,-127.70 189.78 80
3 08/31/2020 10:01:10 -0.33,-126.41 -0.07,-127.78 154.50 80
4 08/31/2020 22:22:35 -0.75,-131.61 0.08,-127.73 441.33 80
5 09/02/2020 09:48:59 -0.99,-123.46 -0.07,-127.85 498.73 80
6 09/02/2020 22:10:24 -0.10,-128.66 0.08,-127.81 97.11 80
7 09/04/2020 21:58:13 0.56,-125.71 0.08,-127.88 246.97 80
8 09/05/2020 10:19:28 0.54,-130.86 -0.08,-127.96 330.17 80
9 09/07/2020 10:07:17 -0.12,-127.91 -0.08,-128.03 13.45 80
10 09/09/2020 09:55:05 -0.72,-124.95 -0.08,-128.09 356.23 80
11 09/09/2020 22:16:30 -0.36,-130.15 0.09,-128.04 239.75 80
